CDT,Max TemperatureF,Mean TemperatureF,Min TemperatureF,Max Dew PointF,MeanDew PointF,Min DewpointF,Max Humidity, Mean Humidity, Min Humidity, Max Sea Level PressureIn, Mean Sea Level PressureIn, Min Sea Level PressureIn, Max VisibilityMiles, Mean VisibilityMiles, Min VisibilityMiles, Max Wind SpeedMPH, Mean Wind SpeedMPH, Max Gust SpeedMPH,PrecipitationIn, CloudCover, Events, WindDirDegrees
2012-6-1,62,55,48,51,47,42,83,67,51,30.07,30.02,29.92,10,10,8,13,5,16,0.04,5,Rain,116
2012-6-2,84,67,49,58,52,46,93,63,32,29.96,29.90,29.80,10,10,10,14,5,16,0.00,3,,150
2012-6-3,85,76,66,69,64,57,87,68,48,29.87,29.81,29.77,10,10,6,33,7,44,0.31,6,Rain-Thunderstorm,130
2012-6-4,94,82,69,67,65,57,90,66,41,29.91,29.84,29.76,10,10,10,10,4,18,0.00,4,,74
2012-6-5,87,78,68,63,59,55,76,56,35,29.91,29.86,29.79,10,10,10,18,10,25,0.00,4,,91
2012-6-6,86,77,67,56,55,52,68,52,36,29.97,29.90,29.85,10,10,10,22,12,26,0.00,6,,120
2012-6-7,84,75,66,61,56,54,68,53,37,30.05,30.01,29.96,10,10,10,16,9,21,0.00,5,,134
2012-6-8,86,73,59,58,54,51,84,57,30,30.08,29.97,29.85,10,10,10,20,9,23,0.00,4,,143
2012-6-9,91,76,60,63,58,53,78,57,36,29.86,29.73,29.62,10,10,10,29,16,37,0.00,1,,165
2012-6-10,94,84,73,68,65,63,73,57,41,29.68,29.62,29.59,10,10,10,32,18,41,0.00,3,,163
2012-6-11,93,82,70,68,53,35,84,49,14,30.04,29.88,29.72,10,10,10,22,11,45,0.00,3,,8
2012-6-12,87,76,64,54,51,48,63,46,29,30.16,30.08,30.00,10,10,10,21,10,30,0.00,3,,109
2012-6-13,91,79,67,62,56,50,64,49,34,30.05,29.94,29.83,10,10,10,25,15,32,0.00,5,,154
2012-6-14,97,81,64,69,66,61,87,63,38,29.94,29.82,29.67,10,10,10,36,18,47,1.01,6,Thunderstorm,161
2012-6-15,88,77,65,68,63,61,93,68,42,30.04,29.92,29.81,10,9,2,26,7,32,0.39,6,Rain-Thunderstorm,39
2012-6-16,90,78,65,70,67,61,90,67,44,30.08,29.97,29.90,10,10,10,31,10,38,0.27,6,Rain-Thunderstorm,199
2012-6-17,94,82,69,70,65,59,93,64,34,29.98,29.82,29.68,10,10,10,22,14,30,0.00,5,,179
2012-6-18,94,83,71,67,66,63,79,60,41,29.71,29.66,29.62,10,10,10,31,21,38,0.00,0,,178
2012-6-19,90,82,73,68,66,63,79,60,41,29.80,29.73,29.69,10,10,10,33,23,41,0.00,2,,171
2012-6-20,89,82,74,68,66,64,79,65,50,29.90,29.81,29.75,10,10,10,32,22,40,0.00,5,,179
2012-6-21,84,75,66,67,61,53,93,66,39,30.14,30.05,29.93,10,10,4,26,9,35,0.53,6,Rain-Thunderstorm,23
2012-6-22,87,76,65,61,58,55,81,58,35,30.06,29.99,29.87,10,10,10,17,9,25,0.00,1,,101
2012-6-23,97,84,70,67,62,58,70,50,30,29.88,29.81,29.75,10,10,10,29,17,36,0.00,1,,168
2012-6-24,102,88,73,65,63,58,69,47,24,29.90,29.86,29.83,10,10,10,21,13,33,0.00,0,,188
2012-6-25,105,87,69,66,63,54,84,52,19,29.90,29.84,29.76,10,10,10,9,4,16,0.00,1,,189
2012-6-26,106,91,75,70,64,55,82,51,19,29.83,29.76,29.68,10,10,10,18,10,29,0.00,0,,150
2012-6-27,106,90,73,69,66,63,74,51,27,29.85,29.79,29.74,10,10,10,26,16,31,0.00,0,,185
2012-6-28,106,88,69,65,60,50,78,48,17,29.94,29.88,29.83,10,10,10,22,12,30,0.00,0,,184
2012-6-29,104,89,73,63,58,53,68,44,20,29.91,29.83,29.74,10,10,10,22,14,28,0.00,3,,180
2012-6-30,103,89,74,64,60,53,64,43,22,29.86,29.79,29.74,10,10,10,23,13,31,0.00,3,,173